Location: Chassagnes
(44.4047°N, 4.1657°E)
Time: 12:27:41
(UTC+00:00)

USA 215 - Pass Details

Date: 27 October 2020
Orbit: 1102 x 1106 km, 123.0° (Epoch: 23 November)

Event Time Altitude Azimuth Distance (km) Brightness Sun altitude
Exits shadow 19:38:57 53° 6° (N) 1,338 3.6 -32.5°
Drops below altitude 10° 19:44:36 10° 314° (NW) 2,965 6.2 -33.5°
Sets 19:47:07 0° 310° (NW) 3,925 7.0 -33.9°
